Showing default

QIANFAN-92, 66034

Orbit data source: Space-Track

QIANFAN-92, 66034 is a Chinese payload satellite in LEO that was launched on Fri, 17 Oct 2025 UTC via a CHANG ZHENG 6A launch vehicle from the Taiyaun Space Center, China (TSC). Payload-class satellites include a variety of spacecraft equipped with specific instruments for various scientific and technological missions. These include communications satellites like Starlink; space stations such as the ISS; scientific satellites like the Hubble; Earth observation satellites from companies like Planet Labs, Umbra, and HawkEye 360; GPS; miniature CubeSats for education and research; and military/defense satellites.

Loading next visibility...
Identifier
66034, 2025-233B
Orbit
LEO
Country
Flag of CNCN / PRC
Related business
Manufacturer
SECM
Mission
Operational Commercial Communications
Bus & Motor
QIANFAN, Unknown motor
Mass
267 kg wet, ~267 kg dry
Launch date (UTC)
2025-10-17 (7 months ago)
Launch vehicle
CHANG ZHENG 6A
Launch site
Taiyaun Space Center, China (TSC)
Object type
Payload
Rocket body
Debris
Shape & HBR
Box + 1 Pan, 14.5 m
Radar Cross Section
13.200 m²

Expand to show TLE details & history
Last TLE update: 8 hours ago

TLE from 8 hours ago
0 QIANFAN-92
1 66034U 25233B   26130.14726187  .00000035  00000-0  35670-4 0  9995
2 66034  88.9999  47.0079 0002300  74.8048 285.3357 13.51004359 28044
Epoch: 2026-05-10T03:32Z
TLE epoch observation values (Epoch: 2026-05-10T03:32:03.425Z)
Latitude
-0.00007°
Longitude
126.03911°
Altitude
1,071.066 km
Speed
7.317 km/s
True Right ascension
03h 08m 01s
True Declination
0° 00' 00"
Sunlit
Object was in daylight at epoch
Visualization orbit readout
Latitude
Unknown
Longitude
Unknown
Altitude
Unknown
Speed
Unknown
Apparent Right ascension
Unknown
Apparent Declination
Unknown
Sunlit
N/A
Visualization observer readout
Local Sidereal Time
19:44:29
Azimuth
Unknown
Elevation
Unknown
Doppler factor
Unknown
Orbital elements
Apogee altitude
1,067.329 km
Perigee altitude
1,063.905 km
Semi-major axis
7,443.754 km
Eccentricity
0.00023
Inclination
88.9999°
RAAN
47.0079°
Arg. of periapsis
74.8048°
True anomaly
285.31028°
Mean anomaly
285.3357°
Eccentric anomaly
285.32299°
Mean motion
3.37952 °/min
Orbital period
106.52 mins
BSTAR
0.00003567
Loading maneuver chart data...
Computing Atmospheric mass density...
Loading historical data...
Loading historical data...
Loading historical data...
Loading historical data...
Loading historical data...
Loading historical data...
Loading historical data...

Documentation

Showing up to 5 results
|